Retour au catalogue

STARLINK-6198

ActifCommunicationsVLEO
NORAD 56768·PAYLOAD·🇺🇸 United States

Lancé May 31, 2023 depuis Vandenberg Space Force Base

Loading…

Prochains Passages (prochaines 24 heures)

TLE

FraisSource: CelesTrak SupGP

Époque: Sep 14, 2026, 21:57 UTC

1 56768C 23078B   26257.91506944  .00531370  00000+0  40886-1 0  2574
2 56768  70.0007 207.1964 0003038 267.3720  21.9669 15.01338334    13

Suivez STARLINK-6198 en temps réel avec AllMySat

Download on the App Store